Location: ????????
(55.4000°N, 39.1167°E)
Time: 13:19:00
(UTC+00:00)

NOSS 2-2 (E) - Pass Details

Date: 19 May 2025
Orbit: 390 x 1730 km, 63.3° (Epoch: 20 June)

Event Time Altitude Azimuth Distance (km) Brightness Sun altitude
Rises 23:28:33 0° 306° (NW) 2,504 6.8 -9.8°
Reaches altitude 10° 23:30:28 10° 300° (WNW) 1,728 5.9 -9.7°
Maximum altitude 23:34:06 46° 227° (SW) 825 3.8 -9.4°
Drops below altitude 10° 23:38:59 10° 155° (SSE) 2,316 6.2 -9.0°
Sets 23:41:55 0° 150° (SSE) 3,481 7.1 -8.8°
